Miscellaneous Local Product
Issued by NWS Hastings, NE

Home | Current Version | Previous Version | Graphics & Text | Print | Product List | Glossary On
Versions: 1 2 3 4 5 6 7 8 9 10 11 12 13 14 15 16 17 18 19 20 21 22 23 24 25 26 27 28 29 30 31 32 33 34 35 36 37 38 39 40 41 42 43 44 45 46 47 48 49 50
576
AXUS43 KGID 251302
MISGRI

GID CWA HOURLY WEATHER ROUNDUP
NATIONAL WEATHER SERVICE HASTINGS NE
800 AM CDT SAT MAR 25 2017

NOTE: "FAIR" INDICATES FEW OR NO CLOUDS BELOW 12,000 FEET WITH NO
SIGNIFICANT WEATHER AND/OR OBSTRUCTIONS TO VISIBILITY.

...SOUTH CENTRAL NEBRASKA...

CITY           SKY/WX    TMP DP  RH WIND       PRES   REMARKS
GRAND ISLAND   CLOUDY    36  36 100 N16       30.03R WCI  26
HASTINGS       CLOUDY    37  35  92 N17       30.02R WCI  27
KEARNEY        CLOUDY    36  34  93 N16       30.03F WCI  26
ORD            CLOUDY    35  33  92 N14       30.06S FOG     WCI  26
YORK           LGT RAIN  37  37 100 N24G30    30.01R WCI  26
AURORA         RAIN      36  35  97 N16G24    30.01S WCI  26
LEXINGTON      CLOUDY    35  33  94 N10G17    30.04F FOG     WCI  27
HOLDREGE       CLOUDY    36  35  96 N21       30.03R WCI  25
HEBRON         RAIN      38  36  92 N17G23    29.98R WCI  29

...NEBRASKA PANHANDLE...

CITY           SKY/WX    TMP DP  RH WIND       PRES   REMARKS
CHADRON        CLOUDY    38  29  70 S8        29.98F WCI  32
ALLIANCE       CLOUDY    26  24  92 SE5       30.03S WCI  20
SCOTTSBLUFF    CLOUDY    31  27  85 E10       30.02S WCI  22
SIDNEY         CLOUDY    21  18  88 SW10      30.05S WCI  10

...WESTERN AND NORTH CENTRAL NEBRASKA...

CITY           SKY/WX    TMP DP  RH WIND       PRES   REMARKS
VALENTINE      FOG       23  20  88 E7        30.06F VSB 1/2 WCI  15
AINSWORTH      FOG       29  29 100 SE3       30.07S VSB<1/4
ONEILL         FOG       34  34 100 NE6       30.09F VSB 1/4 WCI  29
BROKEN BOW     FOG       33  32  96 N9        30.06S VSB 1   WCI  25
IMPERIAL       CLOUDY    32  27  81 NW8       30.06R WCI  25
NORTH PLATTE   CLOUDY    27  24  89 W5        30.06R WCI  22
MCCOOK         CLEAR     32  30  92 W3        30.04R

...EASTERN NEBRASKA...

CITY           SKY/WX    TMP DP  RH WIND       PRES   REMARKS
NORFOLK        CLOUDY    35  34  96 N14       30.05S FOG     WCI  26
SO SIOUX CITY  CLOUDY    38  38 100 NE12G23   30.07R WCI  30
TEKAMAH        RAIN      39  37  92 N20G28    30.03R FOG     WCI  29
COLUMBUS       CLOUDY    37  34  87 N16       30.04S WCI  28
ALBION         CLOUDY    36  34  91 N12       30.05S FOG     WCI  28
OMAHA EPPLEY   LGT RAIN  40  36  86 N17       29.98R WCI  31
OFFUTT AFB     LGT RAIN  41  38  89 N14G24    29.97R
MILLARD        RAIN      42  40  95 N6        29.98S
LINCOLN        LGT RAIN  40  38  93 N20       30.00R WCI  30
NEBRASKA CITY  CLOUDY    40  40 100 N18       29.94R FOG     WCI  31
BEATRICE       CLOUDY    40  40  99 N16G25    29.94S WCI  32
FALLS CITY     LGT RAIN  43  42  97 N14G23    29.88R FOG

...NORTHERN KANSAS...

CITY           SKY/WX    TMP DP  RH WIND       PRES   REMARKS
GOODLAND       CLEAR     32  29  88 NW10      30.05R WCI  24
HILL CITY      CLOUDY    39  36  89 N12       30.03R WCI  32
NORTON         CLOUDY    36  30  80 N13G18    30.01  WCI  27
PHILLIPSBURG   CLOUDY    39  39 100 N14       30.01S WCI  31
HAYS             N/A     42  38  85 N18G28    29.99R
RUSSELL        CLOUDY    41  39  93 N14       29.97S
CONCORDIA      CLOUDY    39  38  96 N13G22    29.96R WCI  31
SALINA         LGT RAIN  43  40  89 N18       29.95R
TOPEKA         RAIN      44  44 100 NW13      29.84R FOG



USA.gov is the U.S. government's official web portal to all federal, state and local government web resources and services.